Location: Malvern Link
(52.1333°N, 2.3000°W)
Time: 15:52:57
(UTC+00:00)

SO-50 - Pass Details

Date: 09 July 2022
Orbit: 585 x 698 km, 64.6° (Epoch: 11 August)

Event Time Altitude Azimuth Distance (km) Brightness Sun altitude
Rises 01:54:30 0° 285° (WNW) 3,030 ? -12.3°
Reaches altitude 10° 01:57:22 10° 302° (WNW) 2,134 ? -12.2°
Maximum altitude 02:01:00 20° 350° (N) 1,568 ? -11.9°
Drops below altitude 10° 02:04:40 10° 38° (NE) 2,165 ? -11.7°
Sets 02:07:36 0° 55° (NE) 3,088 ? -11.5°
